STARLINK-35228, 65517

Orbit data source: Space-Track

STARLINK-35228, 65517 is a payload satellite owned by SpaceX/Seattle (US) in LEO that was launched on Fri, 05 Sep 2025 UTC via an FALCON 9 launch vehicle from the Air Force Eastern Test Range (AFETR). Payload-class satellites include a variety of spacecraft equipped with specific instruments for various scientific and technological missions. These include communications satellites like Starlink; space stations such as the ISS; scientific satellites like the Hubble; Earth observation satellites from companies like Planet Labs, Umbra, and HawkEye 360; GPS; miniature CubeSats for education and research; and military/defense satellites.

Loading next visibility...
Identifier
65517, 2025-198AB
Orbit
LEO
Country
Flag of USUS
Related business
Manufacturer
SpaceX/Seattle
Mission
Operational Commercial Communications
Bus & Motor
STARLINK V2MO, Unknown motor
Mass
575 kg wet, ~530 kg dry
Launch date (UTC)
2025-09-05 (9 months ago)
Launch vehicle
FALCON 9
Launch site
Air Force Eastern Test Range (AFETR)
Object type
Payload
Rocket body
Debris
Shape & HBR
Box + 2 Pan, 17.7 m
Radar Cross Section
36.964 m², Large (>1 m²)

Expand to show TLE details & history
Last TLE update: 12 hours ago

TLE from 12 hours ago
0 STARLINK-35228
1 65517U 25198AB  26171.34870883  .00017755  00000-0  53549-3 0  9991
2 65517  53.1589 152.3081 0001125  78.7526 281.3603 15.34392139 44361
Epoch: 2026-06-20T08:22Z
TLE epoch observation values (Epoch: 2026-06-20T08:22:08.442Z)
Latitude
-0.00004°
Longitude
118.20828°
Altitude
463.476 km
Speed
7.636 km/s
True Right ascension
10h 09m 13s
True Declination
0° 00' 00"
Sunlit
Object was in daylight at epoch
Visualization orbit readout
Latitude
Unknown
Longitude
Unknown
Altitude
Unknown
Speed
Unknown
Apparent Right ascension
Unknown
Apparent Declination
Unknown
Sunlit
N/A
Visualization observer readout
Local Sidereal Time
07:14:51
Azimuth
Unknown
Elevation
Unknown
Doppler factor
Unknown
Orbital elements
Apogee altitude
463.753 km
Perigee altitude
462.214 km
Semi-major axis
6,841.121 km
Eccentricity
0.00011
Inclination
53.1589°
RAAN
152.3081°
Arg. of periapsis
78.7526°
True anomaly
281.34766°
Mean anomaly
281.3603°
Eccentric anomaly
281.35398°
Mean motion
3.83577 °/min
Orbital period
93.85 mins
BSTAR
0.00053549
Loading maneuver chart data...
Computing Atmospheric mass density...
Loading historical data...
Loading historical data...
Loading historical data...
Loading historical data...
Loading historical data...
Loading historical data...
Loading historical data...

Documentation

Showing up to 5 results
|